This demonstration page uses our WeatherBlox Daily Observations layout. Learn more.

Left ArrowRight Arrow

Hourly Observations for December 9, 2022

Temp ( °F °C ) Dew Point ( °F °C ) Humidity (%) Winds ( mph kmh ) Pressure ( in mb ) Visibility ( mi km ) Precip ( " mm )
12:15 am 00:15 Cloudy 31 -0.8 28 -2.5 88 88 NW 15 24 30.19 1022 10 16 0.00 0.00
12:35 am 00:35 Partly Cloudy 30 -1.3 27 -3 88 88 NW 13 20 30.20 1023 10 16 0.00 0.00
12:55 am 00:55 Clear 29 -1.5 26 -3.3 87 87 NW 13 20 30.20 1023 10 16 0.00 0.00
1:15 am 01:15 Clear 28 -2 26 -3.5 89 89 WNW 12 19 30.22 1023 10 16 0.00 0.00
1:35 am 01:35 Clear 29 -1.7 26 -3.5 87 87 WNW 12 19 30.21 1023 10 16 0.00 0.00
1:55 am 01:55 Clear 28 -2.1 25 -3.7 89 89 WNW 9 15 30.22 1023 10 16 0.00 0.00
2:15 am 02:15 Clear 27 -2.6 25 -4 90 90 WNW 10 17 30.23 1024 10 16 0.00 0.00
2:35 am 02:35 Clear 28 -2.5 25 -4.1 89 89 WNW 10 17 30.22 1023 10 16 0.00 0.00
2:55 am 02:55 Clear 26 -3.2 24 -4.6 90 90 WNW 9 15 30.24 1024 10 16 0.00 0.00
3:15 am 03:15 Clear 26 -3.6 23 -5 90 90 WNW 8 13 30.25 1024 10 16 0.00 0.00
3:35 am 03:35 Clear 26 -3.3 23 -4.8 89 89 WNW 8 13 30.25 1024 10 16 0.00 0.00
3:55 am 03:55 Clear 25 -4 22 -5.5 89 89 WNW 6 9 30.26 1025 10 16 0.00 0.00
4:15 am 04:15 Clear 24 -4.5 21 -5.9 90 90 WNW 7 11 30.27 1025 10 16 0.00 0.00
4:35 am 04:35 Clear 22 -5.7 19 -7 90 90 W 7 11 30.28 1025 10 16 0.00 0.00
4:55 am 04:55 Clear 23 -5 21 -6.3 91 91 WNW 6 9 30.27 1025 10 16 0.00 0.00
5:15 am 05:15 Clear 23 -5.1 20 -6.4 91 91 WNW 6 9 30.28 1026 10 16 0.00 0.00
5:35 am 05:35 Clear 21 -6 19 -7.1 92 92 WNW 5 7 30.29 1026 10 16 0.00 0.00
5:55 am 05:55 Clear 21 -6.3 19 -7.3 93 93 NW 6 9 30.29 1026 10 16 0.00 0.00
6:15 am 06:15 Clear 19 -7.1 17 -8.3 91 91 NNW 3 6 30.30 1026 10 16 0.00 0.00
6:35 am 06:35 Clear 19 -7.2 17 -8.2 93 93 W 5 7 30.31 1026 10 16 0.00 0.00
6:55 am 06:55 Clear 21 -6 20 -6.7 95 95 WNW 3 6 30.31 1026 10 16 0.00 0.00
7:15 am 07:15 Clear 19 -7 18 -7.9 93 93 WNW 3 6 30.32 1027 10 16 0.00 0.00
7:35 am 07:35 Clear 20 -6.6 18 -7.6 93 93 NW 6 9 30.31 1026 10 16 0.00 0.00
7:55 am 07:55 Sunny 20 -6.5 19 -7.3 94 94 WNW 7 11 30.31 1026 10 16 0.00 0.00
8:15 am 08:15 Sunny 19 -7.2 17 -8.2 93 93 NW 6 9 30.30 1026 10 16 0.00 0.00
8:35 am 08:35 Sunny 21 -6.1 19 -7.5 90 90 WNW 5 7 30.29 1026 10 16 0.00 0.00
8:55 am 08:55 Sunny 23 -5.1 20 -6.8 88 88 Calm 30.28 1026 10 16 0.00 0.00
9:15 am 09:15 Sunny 24 -4.2 21 -6 87 87 NW 3 6 30.28 1025 10 16 0.00 0.00
9:35 am 09:35 Sunny 27 -2.7 24 -4.6 87 87 NW 5 7 30.26 1025 10 16 0.00 0.00
9:55 am 09:55 Sunny 28 -2 24 -4.2 85 85 NW 6 9 30.25 1024 10 16 0.00 0.00
10:15 am 10:15 Sunny 29 -1.6 25 -4 84 84 NNW 7 11 30.24 1024 10 16 0.00 0.00
10:35 am 10:35 Sunny 31 -0.6 27 -3 84 84 NNW 6 9 30.23 1024 10 16 0.00 0.00
10:55 am 10:55 Sunny 32 0 26 -3.1 80 80 NW 3 6 30.23 1024 10 16 0.00 0.00
11:15 am 11:15 Sunny 33 0.4 27 -2.9 78 78 N 3 6 30.22 1023 10 16 0.00 0.00
11:35 am 11:35 Sunny 34 0.9 27 -2.6 77 77 Calm 30.22 1023 10 16 0.00 0.00
11:55 am 11:55 Sunny 35 1.6 28 -2.5 74 74 Calm 30.20 1023 10 16 0.00 0.00
12:15 pm 12:15 Sunny 37 2.5 28 -2.4 70 70 SW 3 6 30.19 1022 10 16 0.00 0.00
12:35 pm 12:35 Sunny 37 3 27 -2.6 67 67 SSW 5 7 30.18 1022 10 16 0.00 0.00
12:55 pm 12:55 Sunny 38 3.4 28 -2.2 67 67 Calm 30.15 1021 10 16 0.00 0.00
1:15 pm 13:15 Sunny 38 3.6 27 -2.6 64 64 Calm 30.14 1021 10 16 0.00 0.00
1:35 pm 13:35 Sunny 39 4.1 29 -1.5 67 67 S 3 6 30.14 1021 10 16 0.00 0.00
1:55 pm 13:55 Sunny 40 4.5 29 -1.6 64 64 SSW 5 7 30.13 1020 10 16 0.00 0.00
2:15 pm 14:15 Sunny 40 4.7 29 -1.6 64 64 SSW 6 9 30.12 1020 10 16 0.00 0.00
2:35 pm 14:35 Sunny 40 4.5 31 -0.6 69 69 SSW 7 11 30.11 1020 10 16 0.00 0.00
2:55 pm 14:55 Sunny 39 4.1 30 -0.9 70 70 SSW 6 9 30.11 1020 10 16 0.00 0.00
3:15 pm 15:15 Sunny 40 4.5 31 -0.8 68 68 S 5 7 30.09 1019 10 16 0.00 0.00
3:35 pm 15:35 Sunny 40 4.7 29 -1.8 63 63 S 7 11 30.10 1019 10 16 0.00 0.00
3:55 pm 15:55 Sunny 40 4.6 28 -2.4 60 60 SSW 8 13 30.10 1019 10 16 0.00 0.00
4:15 pm 16:15 Sunny 40 4.3 27 -2.9 59 59 SSE 5 7 30.10 1019 10 16 0.00 0.00
4:35 pm 16:35 Sunny 38 3.4 28 -2.5 65 65 SSE 7 11 30.10 1019 10 16 0.00 0.00
4:55 pm 16:55 Sunny 35 1.6 26 -3.6 68 68 SE 7 11 30.10 1019 10 16 0.00 0.00
5:15 pm 17:15 Clear 33 0.5 24 -4.4 70 70 SE 9 15 30.11 1020 10 16 0.00 0.00
5:35 pm 17:35 Clear 32 -0.1 24 -4.7 71 71 SE 9 15 30.10 1019 10 16 0.00 0.00
5:55 pm 17:55 Clear 30 -1.1 23 -4.8 76 76 SE 10 17 30.11 1019 10 16 0.00 0.00
6:15 pm 18:15 Clear 27 -2.7 22 -5.5 81 81 SE 9 15 30.12 1020 10 16 0.00 0.00
6:35 pm 18:35 Clear 27 -2.8 23 -5.2 83 83 SSE 9 15 30.12 1020 10 16 0.00 0.00
6:55 pm 18:55 Clear 28 -2.1 23 -4.8 82 82 SSE 7 11 30.12 1020 10 16 0.00 0.00
7:15 pm 19:15 Clear 27 -2.8 23 -5.2 83 83 SSE 10 17 30.13 1020 10 16 0.00 0.00
7:35 pm 19:35 Clear 26 -3.1 23 -5 87 87 Calm 30.15 1021 10 16 0.00 0.00
7:55 pm 19:55 Clear 26 -3.1 23 -4.9 87 87 SSE 3 6 30.17 1022 10 16 0.00 0.00
8:15 pm 20:15 Clear 26 -3.2 23 -4.8 89 89 Calm 30.17 1022 10 16 0.00 0.00
8:35 pm 20:35 Partly Cloudy 24 -4.3 22 -5.6 91 91 SE 7 11 30.18 1022 10 16 0.00 0.00
8:55 pm 20:55 Partly Cloudy 25 -4 22 -5.3 91 91 SE 6 9 30.18 1022 10 16 0.00 0.00
9:15 pm 21:15 Clear 25 -4 22 -5.3 91 91 SE 7 11 30.18 1022 10 16 0.00 0.00
9:35 pm 21:35 Clear 26 -3.3 24 -4.7 90 90 SE 5 7 30.18 1022 10 16 0.00 0.00
9:55 pm 21:55 Clear 27 -2.9 25 -4.1 91 91 SSE 7 11 30.16 1021 10 16 0.00 0.00
10:15 pm 22:15 Clear 27 -3 24 -4.2 91 91 SSE 9 15 30.17 1022 10 16 0.00 0.00
10:35 pm 22:35 Clear 27 -2.7 26 -3.6 93 93 SSE 8 13 30.16 1021 10 16 0.00 0.00
10:55 pm 22:55 Clear 26 -3.3 25 -4.1 94 94 SSE 8 13 30.16 1021 7 11 0.00 0.00
11:15 pm 23:15 Clear 26 -3.3 25 -4 95 95 SSE 7 11 30.17 1022 7 11 0.00 0.00
11:35 pm 23:35 Clear with Mist and Fog 25 -4 24 -4.5 96 96 SSE 8 13 30.18 1022 5 8 0.00 0.00
11:55 pm 23:55 Clear 26 -3.5 25 -4.1 96 96 SSE 7 11 30.17 1022 7 11 0.00 0.00

Powered by AerisWeather